Weather History for KONA - May, 2013

Change the Weather History Date:

Friday, May 24, 2013

  Actual Average Record
Temperature  
Mean Temperature 52 °F -  
Max Temperature 66 °F 66 °F 82 °F (2006)
Min Temperature 37 °F 49 °F 37 °F (2013)
Degree Days  
Heating Degree Days 14    
Growing Degree Days 2 (Base 50)    
Moisture  
Dew Point 39 °F    
Average Humidity 56    
Maximum Humidity 93    
Minimum Humidity 37    
Precipitation  
Precipitation 0.00 in - - ()
Sea Level Pressure  
Sea Level Pressure 30.35 in    
Wind  
Wind Speed 4 mph (ESE)    
Max Wind Speed 10 mph    
Max Gust Speed -    
Visibility 10 miles    
Events Rain    
Averages and records for this station are not official NWS values.
T = Trace of Precipitation, MM = Missing Value Source: NWS Daily Summary

Daily Weather History Graph

Daily Weather History Graph

Search for Another Location

Airport or City:

Trip Planner

Search our weather history database for the weather conditions in past years. The results will help you decide how hot, cold, wet, or windy it might be!

Date:

Astronomy

May. 24, 2013 Rise Set
Actual Time 5:31 AM CDT 8:36 PM CDT
Civil Twilight 4:57 AM CDT 9:10 PM CDT
Nautical Twilight 4:12 AM CDT 9:55 PM CDT
Astronomical Twilight 3:19 AM CDT 10:48 PM CDT
Moon 8:17 PM CDT (5/24) 5:06 AM CDT (5/24)
Length of Visible Light 16h 13m
Length of Day
15h 04m
Full, 100% of the Moon is Illuminated
May 24
Full
May 24
Full
May 31
Last Quarter
Jun 8
New
Jun 16
First Quarter

Hourly Weather History & Observations

Time (CDT) Temp. Dew Point Humidity Pressure Visibility Wind Dir Wind Speed Gust Speed Precip Events Conditions
12:16 AM 51.8 °F 32.0 °F 47% 30.35 in 10.0 mi NNE 4.6 mph - N/A   Clear
12:36 AM 51.8 °F 32.0 °F 47% 30.35 in 10.0 mi ENE 4.6 mph - N/A   Clear
12:57 AM 48.2 °F 32.0 °F 54% 30.35 in 10.0 mi NE 3.5 mph - N/A   Clear
1:16 AM 48.2 °F 30.2 °F 50% 30.35 in 10.0 mi ENE 3.5 mph - N/A   Clear
1:36 AM 48.2 °F 32.0 °F 54% 30.36 in 10.0 mi East 4.6 mph - N/A   Clear
1:57 AM 48.2 °F 33.8 °F 58% 30.36 in 10.0 mi ENE 3.5 mph - N/A   Clear
2:16 AM 48.2 °F 33.8 °F 58% 30.36 in 10.0 mi Calm Calm - N/A   Clear
2:36 AM 46.4 °F 33.8 °F 62% 30.36 in 10.0 mi Calm Calm - N/A   Clear
2:57 AM 46.4 °F 32.0 °F 57% 30.36 in 10.0 mi Calm Calm - N/A   Clear
3:16 AM 44.6 °F 33.8 °F 66% 30.36 in 10.0 mi Calm Calm - N/A   Clear
3:36 AM 42.8 °F 35.6 °F 76% 30.37 in 10.0 mi Calm Calm - N/A   Clear
3:57 AM 42.8 °F 35.6 °F 76% 30.37 in 10.0 mi Calm Calm - N/A   Clear
4:16 AM 41.0 °F 35.6 °F 81% 30.37 in 10.0 mi Calm Calm - N/A   Clear
4:36 AM 41.0 °F 35.6 °F 81% 30.38 in 10.0 mi Calm Calm - N/A   Clear
4:57 AM 41.0 °F 35.6 °F 81% 30.39 in 10.0 mi Calm Calm - N/A   Clear
5:16 AM 39.2 °F 35.6 °F 87% 30.39 in 10.0 mi Calm Calm - N/A   Clear
5:36 AM 41.0 °F 37.4 °F 87% 30.39 in 10.0 mi Calm Calm - N/A   Clear
5:57 AM 39.2 °F 37.4 °F 93% 30.40 in 10.0 mi Calm Calm - N/A   Clear
6:16 AM 37.4 °F 35.6 °F 93% 30.40 in 10.0 mi Calm Calm - N/A   Clear
6:36 AM 41.0 °F 37.4 °F 87% 30.41 in 10.0 mi Calm Calm - N/A   Clear
6:57 AM 42.8 °F 37.4 °F 81% 30.41 in 10.0 mi Calm Calm - N/A   Clear
7:16 AM 46.4 °F 37.4 °F 71% 30.42 in 10.0 mi Calm Calm - N/A   Clear
7:36 AM 48.2 °F 39.2 °F 71% 30.42 in 10.0 mi SE 6.9 mph - N/A   Clear
7:56 AM 48.2 °F 37.4 °F 66% 30.43 in 10.0 mi SE 6.9 mph - N/A   Clear
8:16 AM 48.2 °F 37.4 °F 66% 30.43 in 10.0 mi SE 5.8 mph - N/A   Clear
8:36 AM 50.0 °F 39.2 °F 66% 30.43 in 10.0 mi SE 5.8 mph - N/A   Clear
8:56 AM 51.8 °F 41.0 °F 67% 30.44 in 10.0 mi ESE 6.9 mph - N/A   Clear
9:16 AM 53.6 °F 41.0 °F 62% 30.44 in 10.0 mi ESE 8.1 mph - N/A   Clear
9:36 AM 53.6 °F 41.0 °F 62% 30.43 in 10.0 mi ESE 5.8 mph - N/A   Clear
9:56 AM 55.4 °F 42.8 °F 63% 30.42 in 10.0 mi ESE 9.2 mph - N/A   Clear
10:16 AM 55.4 °F 42.8 °F 63% 30.41 in 10.0 mi ESE 9.2 mph - N/A   Clear
10:36 AM 55.4 °F 41.0 °F 58% 30.41 in 10.0 mi East 8.1 mph - N/A   Clear
10:57 AM 57.2 °F 41.0 °F 55% 30.41 in 10.0 mi East 9.2 mph - N/A   Clear
11:16 AM 57.2 °F 41.0 °F 55% 30.40 in 10.0 mi East 10.4 mph - N/A   Clear
11:36 AM 59.0 °F 42.8 °F 55% 30.39 in 10.0 mi ESE 8.1 mph - N/A   Clear
11:56 AM 59.0 °F 42.8 °F 55% 30.39 in 10.0 mi ESE 9.2 mph - N/A   Clear
12:16 PM 60.8 °F 42.8 °F 52% 30.39 in 10.0 mi ESE 4.6 mph - N/A   Clear
12:36 PM 60.8 °F 42.8 °F 52% 30.38 in 10.0 mi East 9.2 mph - N/A   Clear
12:56 PM 60.8 °F 41.0 °F 48% 30.37 in 10.0 mi ESE 9.2 mph - N/A   Clear
1:16 PM 62.6 °F 41.0 °F 45% 30.36 in 10.0 mi ESE 6.9 mph - N/A   Clear
1:36 PM 62.6 °F 41.0 °F 45% 30.35 in 10.0 mi East 6.9 mph - N/A   Clear
1:56 PM 62.6 °F 41.0 °F 45% 30.34 in 10.0 mi East 4.6 mph - N/A   Clear
2:16 PM 62.6 °F 41.0 °F 45% 30.33 in 10.0 mi East 6.9 mph - N/A   Clear
2:19 PM 62.6 °F 41.0 °F 45% 30.33 in 10.0 mi ESE 9.2 mph - N/A   Clear
2:57 PM 66.2 °F 42.8 °F 43% 30.31 in 10.0 mi ESE 9.2 mph - N/A   Clear
3:16 PM 62.6 °F 41.0 °F 45% 30.30 in 10.0 mi ESE 10.4 mph - N/A   Clear
3:36 PM 66.2 °F 41.0 °F 40% 30.29 in 10.0 mi ESE 8.1 mph - N/A   Clear
3:57 PM 62.6 °F 39.2 °F 42% 30.28 in 10.0 mi ESE 10.4 mph - N/A   Clear
4:16 PM 66.2 °F 41.0 °F 40% 30.29 in 10.0 mi ESE 9.2 mph - N/A   Clear
4:36 PM 66.2 °F 41.0 °F 40% 30.28 in 10.0 mi South 4.6 mph - N/A   Clear
4:57 PM 64.4 °F 37.4 °F 37% 30.27 in 10.0 mi SSE 4.6 mph - N/A   Clear
5:16 PM 64.4 °F 37.4 °F 37% 30.27 in 10.0 mi South 4.6 mph - N/A   Clear
5:36 PM 62.6 °F 35.6 °F 37% 30.26 in 10.0 mi SSE 6.9 mph - N/A   Clear
5:57 PM 64.4 °F 41.0 °F 42% 30.27 in 10.0 mi South 3.5 mph - N/A   Clear
6:16 PM 62.6 °F 41.0 °F 45% 30.28 in 10.0 mi South 3.5 mph - N/A   Clear
6:36 PM 62.6 °F 37.4 °F 39% 30.29 in 10.0 mi Calm Calm - N/A   Clear
6:57 PM 64.4 °F 37.4 °F 37% 30.31 in 10.0 mi Calm Calm - N/A   Clear
7:16 PM 62.6 °F 39.2 °F 42% 30.31 in 10.0 mi SW 4.6 mph - N/A   Clear
7:36 PM 62.6 °F 37.4 °F 39% 30.30 in 10.0 mi Calm Calm - N/A   Clear
7:57 PM 60.8 °F 39.2 °F 45% 30.29 in 10.0 mi Calm Calm - N/A   Clear
8:16 PM 59.0 °F 41.0 °F 51% 30.28 in 10.0 mi Calm Calm - N/A   Clear
8:36 PM 59.0 °F 42.8 °F 55% 30.27 in 10.0 mi SSE 4.6 mph - N/A   Clear
8:57 PM 59.0 °F 41.0 °F 51% 30.26 in 10.0 mi SSE 5.8 mph - N/A   Clear
9:16 PM 59.0 °F 42.8 °F 55% 30.26 in 10.0 mi Calm Calm - N/A   Clear
9:36 PM 59.0 °F 41.0 °F 51% 30.27 in 10.0 mi Calm Calm - N/A   Clear
9:57 PM 59.0 °F 41.0 °F 51% 30.27 in 10.0 mi SSE 4.6 mph - N/A   Scattered Clouds
10:16 PM 59.0 °F 41.0 °F 51% 30.28 in 10.0 mi Calm Calm - N/A   Scattered Clouds
10:36 PM 59.0 °F 41.0 °F 51% 30.27 in 10.0 mi SE 5.8 mph - N/A   Mostly Cloudy
10:56 PM 59.0 °F 41.0 °F 51% 30.29 in 10.0 mi Calm Calm - N/A   Mostly Cloudy
11:16 PM 59.0 °F 41.0 °F 51% 30.29 in 10.0 mi Calm Calm - N/A   Overcast
11:35 PM 59.0 °F 41.0 °F 51% 30.29 in 10.0 mi Calm Calm - N/A Rain Light Rain
11:56 PM 57.2 °F 42.8 °F 59% 30.29 in 10.0 mi Calm Calm - N/A Rain Rain